H-2A R/B (38341 NORAD) Tracking and Keplerian Element Data

This shows tracking and keplerian element data for the satellite.

Feedback or suggestion? Click here.




ElementValue
Catalog38341
NameH-2A R/B
Epoch Orbit56067
Epoch Day269.69386828
Epoch Year2022
RAAN131.6383
Inclination98.4912
Eccentricity0.0055828
Argument of Perigee81.1907
Mean Anonmoly279.5622
Mean Motion14.84885362
Decay Rate9E-06
L11 38341U 12025E 22269.69386828 .00000900 00000+0 11037-3 0 9993
L22 38341 98.4912 131.6383 0055828 81.1907 279.5622 14.84885362560679

Live tracking and technical data element details for H-2A R/B (NORAD 38341). H-2A R/B can be tracked NOW for your location showing map with azimuth and elevation plus other details from your city location.

Track the satellite on the map from your city or location and see movement details for azimuth, elevation, latitude, longitude, range, height, and movement on the map or in text.







IsCatalogInMostPopularTable: catalog: 38341, numindb: 723
Update: records affected: 1



GetName: 38341 H-2A R/B

Hit Count: updated at: Fri, 30 Sep 2022 03:18:31 GMT